STARLINK-35834, 66570

Orbit data source: Space-Track

STARLINK-35834, 66570 is a payload satellite owned by SpaceX/Seattle (US) in LEO that was launched on Fri, 21 Nov 2025 UTC via an FALCON 9 launch vehicle from the Air Force Eastern Test Range (AFETR). Payload-class satellites include a variety of spacecraft equipped with specific instruments for various scientific and technological missions. These include communications satellites like Starlink; space stations such as the ISS; scientific satellites like the Hubble; Earth observation satellites from companies like Planet Labs, Umbra, and HawkEye 360; GPS; miniature CubeSats for education and research; and military/defense satellites.

Loading next visibility...
Identifier
66570, 2025-268P
Orbit
LEO
Country
Flag of USUS
Related business
Manufacturer
SpaceX/Seattle
Mission
Operational Commercial Communications
Bus & Motor
STARLINK V2MO, Unknown motor
Mass
575 kg wet, ~530 kg dry
Launch date (UTC)
2025-11-21 (7 months ago)
Launch vehicle
FALCON 9
Launch site
Air Force Eastern Test Range (AFETR)
Object type
Payload
Rocket body
Debris
Shape & HBR
Box + 2 Pan, 17.7 m
Radar Cross Section
36.964 m², Large (>1 m²)

Expand to show TLE details & history
Last TLE update: 15 hours ago

TLE from 15 hours ago
0 STARLINK-35834
1 66570U 25268P   26171.27439417  .00017977  00000-0  66032-3 0  9992
2 66570  43.0060 128.1594 0002049 256.2956 103.7667 15.27623459 33649
Epoch: 2026-06-20T06:35Z
TLE epoch observation values (Epoch: 2026-06-20T06:35:07.656Z)
Latitude
-0.00006°
Longitude
120.88607°
Altitude
483.03 km
Speed
7.626 km/s
True Right ascension
08h 32m 38s
True Declination
0° 00' 00"
Sunlit
Object was in daylight at epoch
Visualization orbit readout
Latitude
Unknown
Longitude
Unknown
Altitude
Unknown
Speed
Unknown
Apparent Right ascension
Unknown
Apparent Declination
Unknown
Sunlit
N/A
Visualization observer readout
Local Sidereal Time
08:32:43
Azimuth
Unknown
Elevation
Unknown
Doppler factor
Unknown
Orbital elements
Apogee altitude
486.269 km
Perigee altitude
483.457 km
Semi-major axis
6,863 km
Eccentricity
0.0002
Inclination
43.006°
RAAN
128.1594°
Arg. of periapsis
256.2956°
True anomaly
103.7895°
Mean anomaly
103.7667°
Eccentric anomaly
103.7781°
Mean motion
3.81744 °/min
Orbital period
94.3 mins
BSTAR
0.00066032
Loading maneuver chart data...
Computing Atmospheric mass density...
Loading historical data...
Loading historical data...
Loading historical data...
Loading historical data...
Loading historical data...
Loading historical data...
Loading historical data...

Documentation

Showing up to 5 results
|